Voltar ao catálogo

SL-12 R/B

AUX MOTOR

AtivoHEO
NORAD 18375·ROCKET BODY·🇷🇺 Russia

Lançado Sep 16, 1987 de Baikonur Cosmodrome

Loading…

Próximas Passagens (próximas 24 horas)

TLE

AtualizadoSource: Space-Track

Época: Sep 14, 2026, 03:51 UTC

1 18375U 87079H   26257.16045885 -.00000798  00000-0 -12084-1 0  9996
2 18375  64.6133  14.0722 5717687 180.4233 178.9127  4.00082083584206

Acompanhe SL-12 R/B em tempo real com AllMySat

Download on the App Store